Total_Precipitation_Accumulation
0.00 0.00 0.00 0.04 0.18 0.31 0.43 0.36 0.26 0.12 0.12 0.10 0.07 0.07 0.11 0.11 0.12 0.09 0.02 0.00 0.00 0.00 0.00 0.01 0.01 0.01 0.01 0.01 0.03 0.06 0.08 0.09 0.10 0.10 0.10 0.10 0.06 0.04 0.02 0.01 0.01 0.01 0.01 0.01 0.01 0.01 0.01 0.01 0.01
0.00 0.00 0.00 0.03 0.14 0.34 0.44 0.36 0.24 0.12 0.12 0.15 0.15 0.08 0.03 0.02 0.01 0.01 0.01 0.00 0.00 0.00 0.00 0.00 0.01 0.00 0.01 0.01 0.02 0.04 0.06 0.07 0.07 0.07 0.07 0.07 0.05 0.02 0.01 0.01 0.01 0.01 0.02 0.02 0.02 0.02 0.02 0.01 0.00
0.00 0.00 0.01 0.02 0.08 0.18 0.22 0.14 0.13 0.16 0.19 0.23 0.21 0.13 0.03 0.02 0.02 0.01 0.00 0.00 0.00 0.00 0.00 0.01 0.01 0.01 0.01 0.01 0.02 0.03 0.04 0.05 0.05 0.05 0.05 0.05 0.04 0.02 0.02 0.02 0.02 0.03 0.04 0.04 0.04 0.04 0.03 0.02 0.01
0.00 0.00 0.01 0.01 0.02 0.04 0.05 0.08 0.14 0.22 0.30 0.40 0.35 0.18 0.06 0.03 0.02 0.01 0.00 0.00 0.00 0.00 0.00 0.01 0.01 0.01 0.01 0.02 0.02 0.03 0.04 0.05 0.05 0.05 0.05 0.04 0.04 0.04 0.03 0.03 0.03 0.05 0.08 0.08 0.09 0.08 0.06 0.03 0.01
0.00 0.00 0.01 0.01 0.01 0.02 0.04 0.10 0.20 0.29 0.35 0.44 0.41 0.23 0.12 0.06 0.04 0.02 0.01 0.01 0.00 0.00 0.00 0.01 0.02 0.02 0.02 0.03 0.04 0.04 0.05 0.05 0.06 0.05 0.05 0.05 0.05 0.05 0.05 0.04 0.04 0.05 0.08 0.09 0.10 0.11 0.09 0.05 0.02
0.00 0.00 0.00 0.00 0.01 0.02 0.06 0.12 0.22 0.31 0.39 0.48 0.63 0.42 0.19 0.10 0.08 0.05 0.03 0.02 0.01 0.01 0.01 0.02 0.03 0.04 0.03 0.04 0.05 0.06 0.06 0.07 0.08 0.08 0.08 0.07 0.06 0.07 0.08 0.07 0.07 0.07 0.08 0.09 0.10 0.11 0.11 0.09 0.05
0.00 0.00 0.00 0.00 0.01 0.03 0.06 0.11 0.21 0.32 0.38 0.57 0.83 0.65 0.30 0.16 0.14 0.10 0.08 0.04 0.03 0.02 0.02 0.04 0.06 0.06 0.06 0.07 0.08 0.08 0.09 0.10 0.10 0.11 0.09 0.08 0.07 0.09 0.10 0.11 0.11 0.10 0.11 0.11 0.12 0.13 0.14 0.13 0.10
0.00 0.00 0.00 0.00 0.01 0.04 0.09 0.13 0.24 0.41 0.52 0.68 0.84 0.75 0.59 0.33 0.21 0.17 0.13 0.08 0.06 0.04 0.03 0.05 0.09 0.12 0.12 0.12 0.11 0.12 0.12 0.13 0.12 0.12 0.11 0.10 0.10 0.13 0.18 0.17 0.16 0.16 0.17 0.19 0.22 0.22 0.24 0.24 0.21
0.00 0.00 0.00 0.00 0.01 0.09 0.13 0.16 0.21 0.27 0.41 0.59 0.75 0.69 0.53 0.33 0.30 0.31 0.26 0.16 0.11 0.07 0.07 0.08 0.11 0.13 0.16 0.18 0.19 0.23 0.25 0.28 0.28 0.30 0.29 0.24 0.23 0.30 0.40 0.35 0.33 0.34 0.37 0.41 0.48 0.49 0.53 0.51 0.39
0.00 0.00 0.00 0.00 0.00 0.05 0.10 0.15 0.21 0.25 0.56 1.00 1.01 0.65 0.37 0.39 0.40 0.36 0.37 0.31 0.22 0.16 0.16 0.16 0.18 0.22 0.25 0.27 0.46 0.56 0.58 0.70 0.62 0.69 0.66 0.62 0.59 0.48 0.36 0.42 0.53 0.63 0.78 0.85 0.92 1.04 1.07 0.96 0.71
0.00 0.00 0.00 0.00 0.01 0.01 0.04 0.09 0.16 0.32 0.69 1.16 1.29 0.89 0.63 0.55 0.55 0.44 0.43 0.45 0.37 0.32 0.27 0.25 0.29 0.32 0.36 0.44 0.66 0.79 0.83 0.91 0.89 0.95 1.02 1.09 1.07 0.88 0.75 0.85 1.05 1.14 1.28 1.27 1.43 1.63 1.36 1.26 1.23
0.00 0.00 0.00 0.00 0.01 0.01 0.08 0.14 0.21 0.26 0.59 0.88 0.76 0.57 0.55 0.53 0.55 0.53 0.50 0.57 0.47 0.43 0.46 0.51 0.56 0.56 0.58 0.70 0.75 0.80 0.76 0.82 0.89 1.02 1.18 1.32 1.29 1.29 1.25 1.26 1.33 1.42 1.54 1.65 1.75 1.77 1.70 1.79 1.75
0.00 0.00 0.00 0.01 0.02 0.03 0.08 0.11 0.20 0.30 0.38 0.48 0.39 0.41 0.58 0.57 0.55 0.57 0.53 0.53 0.62 0.76 0.84 0.86 0.85 0.80 0.73 0.66 0.65 0.64 0.64 0.65 0.76 0.86 0.94 1.05 1.26 1.40 1.40 1.24 1.21 1.23 1.43 1.68 1.93 1.96 2.15 2.20 1.95
0.00 0.00 0.00 0.01 0.02 0.03 0.05 0.08 0.16 0.32 0.37 0.47 0.51 0.46 0.57 0.71 0.68 0.65 0.72 0.87 1.16 1.26 1.27 1.23 1.10 0.93 0.86 0.78 0.68 0.66 0.62 0.65 0.69 0.71 0.79 0.96 1.09 1.25 1.21 1.20 1.24 1.26 1.25 1.36 1.71 1.91 2.08 1.99 1.74
0.00 0.02 0.03 0.03 0.02 0.03 0.04 0.12 0.29 0.43 0.60 0.58 0.62 0.58 0.64 0.89 0.91 0.98 1.18 1.47 1.83 2.05 1.79 1.42 1.18 1.00 0.90 0.89 0.84 0.77 0.69 0.64 0.66 0.63 0.69 0.79 0.86 0.97 1.01 1.00 0.99 1.04 1.05 1.07 1.19 1.35 1.49 1.41 1.28
0.01 0.06 0.14 0.07 0.03 0.05 0.08 0.36 0.56 0.45 0.72 0.97 0.78 0.83 1.04 1.22 1.19 1.29 1.54 2.06 2.54 2.71 2.32 1.71 1.46 1.44 1.31 1.17 0.90 0.71 0.64 0.57 0.50 0.48 0.49 0.53 0.55 0.58 0.61 0.60 0.58 0.62 0.61 0.65 0.73 0.82 0.91 0.96 1.03
0.02 0.05 0.13 0.15 0.08 0.07 0.15 0.52 0.68 0.47 0.57 0.82 0.92 0.98 1.20 1.30 1.15 1.16 1.43 1.96 2.60 3.06 2.90 2.30 2.11 2.13 1.61 1.00 0.68 0.54 0.47 0.39 0.35 0.37 0.35 0.37 0.39 0.40 0.43 0.42 0.41 0.40 0.38 0.39 0.40 0.49 0.59 0.67 0.74
0.02 0.03 0.08 0.19 0.14 0.14 0.21 0.40 0.65 0.66 0.77 0.92 0.94 0.94 1.04 1.00 0.89 0.89 0.97 1.12 1.76 2.18 2.08 1.93 1.91 1.55 1.03 0.60 0.42 0.31 0.27 0.23 0.21 0.25 0.27 0.28 0.31 0.33 0.36 0.34 0.33 0.29 0.27 0.29 0.34 0.38 0.41 0.42 0.46
0.01 0.03 0.07 0.13 0.14 0.21 0.33 0.44 0.60 0.72 0.89 1.02 0.97 0.81 0.71 0.70 0.70 0.66 0.62 0.54 0.74 0.88 0.88 0.99 0.94 0.83 0.52 0.36 0.23 0.16 0.14 0.13 0.13 0.16 0.16 0.19 0.23 0.28 0.34 0.29 0.32 0.29 0.24 0.24 0.26 0.29 0.30 0.28 0.29
0.03 0.05 0.10 0.13 0.13 0.18 0.32 0.55 0.68 0.73 0.72 0.78 0.83 0.72 0.60 0.59 0.55 0.40 0.29 0.33 0.34 0.40 0.46 0.48 0.49 0.41 0.25 0.17 0.15 0.13 0.11 0.08 0.07 0.07 0.09 0.09 0.12 0.17 0.23 0.30 0.25 0.25 0.25 0.25 0.24 0.26 0.25 0.22 0.24
0.04 0.05 0.06 0.10 0.10 0.17 0.31 0.75 0.81 0.68 0.59 0.53 0.62 0.63 0.51 0.42 0.32 0.18 0.11 0.12 0.27 0.46 0.40 0.25 0.25 0.20 0.13 0.11 0.10 0.10 0.10 0.10 0.09 0.08 0.07 0.08 0.07 0.09 0.14 0.21 0.24 0.27 0.24 0.27 0.32 0.30 0.27 0.21 0.19
0.03 0.03 0.01 0.02 0.06 0.28 0.38 0.77 0.83 0.67 0.65 0.50 0.45 0.45 0.28 0.17 0.12 0.08 0.06 0.07 0.15 0.26 0.26 0.21 0.20 0.20 0.12 0.09 0.08 0.08 0.07 0.08 0.08 0.07 0.06 0.07 0.06 0.07 0.08 0.10 0.15 0.22 0.26 0.33 0.26 0.29 0.30 0.25 0.19
0.01 0.01 0.01 0.03 0.07 0.18 0.30 0.63 0.80 0.59 0.67 0.46 0.29 0.18 0.09 0.05 0.03 0.02 0.02 0.02 0.02 0.05 0.11 0.16 0.25 0.29 0.20 0.14 0.10 0.09 0.07 0.06 0.07 0.07 0.07 0.08 0.10 0.11 0.12 0.12 0.11 0.12 0.19 0.26 0.29 0.35 0.32 0.32 0.27
0.00 0.01 0.07 0.14 0.18 0.37 0.40 0.42 0.67 0.47 0.35 0.20 0.12 0.06 0.04 0.02 0.01 0.01 0.01 0.01 0.01 0.04 0.06 0.09 0.19 0.26 0.21 0.16 0.14 0.15 0.15 0.13 0.12 0.11 0.11 0.14 0.17 0.19 0.19 0.20 0.20 0.19 0.17 0.17 0.19 0.24 0.30 0.35 0.36
0.01 0.02 0.14 0.31 0.44 0.54 0.27 0.43 0.73 0.35 0.19 0.09 0.06 0.03 0.02 0.01 0.01 0.01 0.01 0.01 0.01 0.03 0.04 0.04 0.08 0.13 0.12 0.10 0.11 0.16 0.23 0.29 0.30 0.25 0.22 0.20 0.21 0.23 0.23 0.22 0.24 0.27 0.27 0.25 0.20 0.16 0.20 0.28 0.33
0.01 0.01 0.03 0.06 0.13 0.22 0.26 0.82 0.65 0.18 0.09 0.05 0.02 0.02 0.02 0.01 0.01 0.01 0.01 0.01 0.01 0.01 0.01 0.02 0.03 0.03 0.03 0.04 0.05 0.07 0.11 0.18 0.26 0.31 0.30 0.30 0.32 0.27 0.23 0.21 0.22 0.26 0.30 0.31 0.28 0.22 0.20 0.22 0.26
0.01 0.00 0.00 0.01 0.03 0.13 0.35 0.51 0.25 0.06 0.03 0.02 0.01 0.01 0.01 0.00 0.00 0.00 0.00 0.00 0.00 0.00 0.00 0.00 0.01 0.01 0.01 0.01 0.01 0.01 0.02 0.04 0.06 0.10 0.14 0.21 0.31 0.30 0.24 0.20 0.19 0.22 0.25 0.30 0.31 0.30 0.29 0.27 0.24
0.02 0.01 0.01 0.01 0.03 0.09 0.24 0.40 0.35 0.10 0.04 0.02 0.01 0.01 0.00 0.00 0.00 0.00 0.00 0.00 0.00 0.00 0.00 0.00 0.00 0.00 0.00 0.00 0.00 0.00 0.01 0.01 0.02 0.03 0.04 0.06 0.11 0.15 0.15 0.15 0.15 0.17 0.19 0.23 0.29 0.34 0.40 0.42 0.38
0.02 0.01 0.01 0.01 0.01 0.03 0.10 0.18 0.15 0.08 0.05 0.02 0.01 0.00 0.00 0.00 0.00 0.00 0.00 0.00 0.00 0.00 0.00 0.00 0.00 0.00 0.00 0.00 0.00 0.00 0.00 0.00 0.00 0.01 0.01 0.02 0.02 0.03 0.04 0.06 0.08 0.10 0.12 0.15 0.21 0.27 0.38 0.51 0.59
0.02 0.01 0.01 0.01 0.02 0.02 0.03 0.04 0.03 0.03 0.04 0.02 0.00 0.00 0.00 0.00 0.00 0.00 0.00 0.00 0.00 0.00 0.00 0.00 0.00 0.00 0.00 0.00 0.00 0.00 0.00 0.00 0.00 0.00 0.00 0.00 0.01 0.01 0.01 0.02 0.02 0.03 0.04 0.07 0.11 0.17 0.24 0.37 0.53